Tracking 29040 objects as of 15-Jun-2024
HD Live streaming from Space Station
objects crossing your sky now

DELTA 1 DEB

Track DELTA 1 DEB now!
10-day predictions


NORAD ID: 8682
Int'l Code: 1975-004J
Perigee: 722.8 km
Apogee: 945.2 km
Inclination: 97.8 °
Period: 101.4 minutes
Semi major axis: 7204 km
RCS: 0.0835 m2 (small)
Launch date: January 22, 1975
Source: United States (US)
Launch site: AIR FORCE WESTERN TEST RANGE (AFWTR)

Note: This is SATELLITE DEBRIS
Your satellite tracking list
Your tracking list is empty




NASA's NSSDC Master Catalog

Two Line Element Set (TLE):
1 08682U 75004J   24166.83271080  .00000895  00000-0  39146-3 0  9996
2 08682  97.8035 271.4431 0154340  94.8032 267.0789 14.19553575546350
Source of the keplerian elements: AFSPC